Harlingen, TX

11:02 AM CDT on September 26, 2017 (GMT -0500)
Valley International

Weather History for KHRL - January, 2013

Change the Weather History Date:

Tuesday, January 29, 2013

  Actual Average Record
Temperature  
Mean Temperature 80 °F 61 °F  
Max Temperature 87 °F 72 °F 87 °F (2006)
Min Temperature 72 °F 51 °F 28 °F (1914)
Degree Days  
Heating Degree Days 0 5  
Month to date heating degree days 176 189  
Since 1 July heating degree days 289 437  
Cooling Degree Days 15 2  
Month to date cooling degree days 70 54  
Year to date cooling degree days 70 54  
Growing Degree Days 28 (Base 50)    
Moisture  
Dew Point 68 °F    
Average Humidity 68    
Maximum Humidity 87    
Minimum Humidity 48    
Precipitation  
Precipitation 0.00 in 0.04 in 0.62 in (2014)
Month to date precipitation 2.56 0.97  
Year to date precipitation 2.56 0.97  
Sea Level Pressure  
Sea Level Pressure 29.76 in    
Wind  
Wind Speed 24 mph (South)    
Max Wind Speed 39 mph    
Max Gust Speed 48 mph    
Visibility 10 miles    
Events      
T = Trace of Precipitation, MM = Missing Value Source: NWS Daily Summary

Daily Weather History Graph

Daily Weather History Graph

Search for Another Location

Airport or City:

Trip Planner

Search our weather history database for the weather conditions in past years. The results will help you decide how hot, cold, wet, or windy it might be!

Date:

Astronomy

Jan. 29, 2013 Rise Set
Actual Time 7:16 AM CST 6:11 PM CST
Civil Twilight 6:51 AM CST 6:35 PM CST
Nautical Twilight 6:24 AM CST 7:03 PM CST
Astronomical Twilight 5:56 AM CST 7:31 PM CST
Moon 8:46 PM CST (1/29) 8:33 AM CST (1/29)
Length of Visible Light 11h 43m
Length of Day
10h 55m
Waning Gibbous, 93% of the Moon is Illuminated
Jan 29
Waning Gibbous
Feb 3
Last Quarter
Feb 10
New
Feb 17
First Quarter
Feb 25
Full

Hourly Weather History & Observations

Time (CST) Temp. Heat Index Dew Point Humidity Pressure Visibility Wind Dir Wind Speed Gust Speed Precip Events Conditions
12:52 AM 73.9 °F - 69.1 °F 85% 29.88 in 10.0 mi SSE 26.5 mph 34.5 mph N/A   Overcast
1:44 AM 73.4 °F - 68.0 °F 83% 29.86 in 10.0 mi SSE 27.6 mph 34.5 mph N/A   Scattered Clouds
1:52 AM 73.0 °F - 68.0 °F 84% 29.86 in 10.0 mi SSE 23.0 mph 34.5 mph N/A   Mostly Cloudy
2:04 AM 73.4 °F - 68.0 °F 83% 29.85 in 10.0 mi SSE 21.9 mph 33.4 mph N/A   Scattered Clouds
2:15 AM 73.4 °F - 68.0 °F 83% 29.85 in 10.0 mi South 19.6 mph 31.1 mph N/A   Mostly Cloudy
2:52 AM 73.9 °F - 69.1 °F 85% 29.84 in 10.0 mi South 21.9 mph 31.1 mph N/A   Overcast
3:52 AM 73.9 °F - 69.1 °F 85% 29.81 in 10.0 mi South 27.6 mph 33.4 mph N/A   Overcast
4:52 AM 73.9 °F - 68.0 °F 82% 29.82 in 10.0 mi South 23.0 mph 33.4 mph N/A   Overcast
5:52 AM 73.0 °F - 68.0 °F 84% 29.81 in 10.0 mi South 27.6 mph 34.5 mph N/A   Overcast
6:43 AM 71.6 °F - 68.0 °F 88% 29.80 in 10.0 mi South 24.2 mph 29.9 mph N/A   Scattered Clouds
6:52 AM 73.4 °F - 68.0 °F 83% 29.80 in 10.0 mi SSE 26.5 mph 36.8 mph N/A   Partly Cloudy
7:10 AM 73.4 °F - 68.0 °F 83% 29.80 in 10.0 mi South 25.3 mph 32.2 mph N/A   Overcast
7:52 AM 73.0 °F - 68.0 °F 84% 29.80 in 10.0 mi SSE 26.5 mph 38.0 mph N/A   Mostly Cloudy
7:59 AM 73.4 °F - 68.0 °F 83% 29.80 in 10.0 mi South 23.0 mph 35.7 mph N/A   Partly Cloudy
8:52 AM 75.0 °F - 66.9 °F 76% 29.81 in 10.0 mi South 23.0 mph 42.6 mph N/A   Partly Cloudy
9:49 AM 78.8 °F - 68.0 °F 69% 29.79 in 10.0 mi South 29.9 mph 42.6 mph N/A   Mostly Cloudy
9:52 AM 78.1 °F - 68.0 °F 71% 29.79 in 10.0 mi South 28.8 mph 41.4 mph N/A   Mostly Cloudy
10:10 AM 80.6 °F 83.2 °F 68.0 °F 65% 29.78 in 10.0 mi South 29.9 mph 42.6 mph N/A   Scattered Clouds
10:52 AM 81.0 °F 83.3 °F 66.9 °F 62% 29.78 in 10.0 mi South 36.8 mph 48.3 mph N/A   Scattered Clouds
11:52 AM 82.9 °F 85.4 °F 66.9 °F 58% 29.75 in 10.0 mi South 39.1 mph 47.2 mph N/A   Clear
12:52 PM 86.0 °F 88.2 °F 66.0 °F 51% 29.72 in 10.0 mi South 26.5 mph 42.6 mph N/A   Clear
1:52 PM 86.0 °F 87.6 °F 64.9 °F 49% 29.68 in 10.0 mi South 31.1 mph 39.1 mph N/A   Clear
2:52 PM 84.9 °F 87.1 °F 66.0 °F 53% 29.65 in 10.0 mi South 28.8 mph 33.4 mph N/A   Clear
3:52 PM 82.0 °F 84.5 °F 66.9 °F 60% 29.64 in 10.0 mi South 23.0 mph 32.2 mph N/A   Clear
4:52 PM 80.1 °F 82.3 °F 66.9 °F 64% 29.64 in 10.0 mi South 21.9 mph 28.8 mph N/A   Clear
5:52 PM 77.0 °F - 66.9 °F 71% 29.64 in 10.0 mi South 16.1 mph - N/A   Clear
6:52 PM 75.0 °F - 68.0 °F 79% 29.67 in 10.0 mi South 17.3 mph - N/A   Clear
7:52 PM 75.0 °F - 69.1 °F 82% 29.67 in 10.0 mi South 19.6 mph 26.5 mph N/A   Clear
8:52 PM 73.9 °F - 69.1 °F 85% 29.69 in 10.0 mi South 16.1 mph - N/A   Clear
9:52 PM 73.9 °F - 69.1 °F 85% 29.68 in 10.0 mi South 17.3 mph - N/A   Clear
10:52 PM 73.9 °F - 69.1 °F 85% 29.68 in 9.0 mi South 17.3 mph 24.2 mph N/A   Partly Cloudy
11:52 PM 73.0 °F - 69.1 °F 87% 29.66 in 8.0 mi South 17.3 mph - N/A   Partly Cloudy